Regional Weather Roundup
Issued by NWS

Home | Current Version | Previous Version | Text Only | Print | Product List | Glossary On
Versions: 1 2 3 4 5 6 7 8 9 10 11 12 13 14 15 16 17 18 19 20 21 22 23 24 25 26 27 28 29 30 31 32 33 34 35 36 37 38 39 40 41 42 43 44 45 46 47 48 49 50
000
ASUS43 KMKX 310859
RWRWI

WISCONSIN REGIONAL WEATHER ROUNDUP
NATIONAL WEATHER SERVICE MILWAUKEE/SULLIVAN WI
300 AM CST SAT JAN 31 2015

NOTE: "FAIR" INDICATES FEW OR NO CLOUDS BELOW 12,000 FEET WITH NO
SIGNIFICANT WEATHER AND/OR OBSTRUCTIONS TO VISIBILITY.

WIZ001-002-006>008-014>016-023>028-311000-
NORTHWEST WISCONSIN

CITY           SKY/WX    TMP DP  RH WIND       PRES   REMARKS
SUPERIOR ARPT  CLOUDY    20  13  74 CALM      30.13F
ASHLAND        CLOUDY    21  14  74 SW3       30.12S
HAYWARD        CLOUDY    20  13  74 S3        30.10F
SIREN          CLOUDY    23  17  80 CALM      30.11S
CUMBERLAND     CLOUDY    19  12  73 CALM      30.10F
RICE LAKE      CLOUDY    19  11  73 SE3       30.13F
CHETEK         CLOUDY    18  11  73 CALM      30.13S
LADYSMITH      CLOUDY    19  11  69 S5        30.13F WCI  13
EAU CLAIRE     NOT AVBL
MENOMONIE      CLOUDY    22  15  75 E3        30.14F
NEW RICHMOND   CLOUDY    25  20  81 CALM      30.12F
OSCEOLA        CLOUDY    26  21  83 S3        30.15S
$$

WIZ003>005-009-010-017-018-311000-
NORTH CENTRAL WISCONSIN

CITY           SKY/WX    TMP DP  RH WIND       PRES   REMARKS
MANITOWISH WTR CLOUDY    16  10  77 SW6       30.07R WCI   8
ARBOR VITAE    CLOUDY    17   9  71 CALM      30.07S
WOODRUFF       CLOUDY    17   9  71 CALM      30.07S
RHINELANDER    CLOUDY    16   7  67 SW8       30.08S WCI   5
EAGLE RIVER    CLOUDY    16   6  65 SW5       30.06F WCI   9
LAND O LAKES   CLOUDY    17   9  72 SW3       30.07F
PHILLIPS       CLOUDY    19  12  75 SW6       30.09S WCI  11
TOMAHAWK       CLOUDY    17   8  67 CALM      30.11S
MEDFORD        CLOUDY    18  10  69 S7        30.10F WCI   9
MERRILL        CLOUDY    19   9  66 W7        30.11F WCI  10
$$

WIZ029-030-035-036-043>047-311000-
CENTRAL WISCONSIN

CITY           SKY/WX    TMP DP  RH WIND       PRES   REMARKS
WAUSAU         CLOUDY    18   8  65 S6        30.11F WCI  10
MOSINEE        CLOUDY    18  12  79 S5        30.15F WCI  11
MARSHFIELD     CLOUDY    18   9  68 S5        30.13F WCI  11
STEVENS POINT  CLOUDY    17   9  72 SW3       30.16F
WAUPACA        CLOUDY    20  11  68 S3        30.19F
WAUTOMA        NOT AVBL
WISC RAPIDS    CLOUDY    19   9  65 CALM      30.17F
CAMP DOUGLAS   NOT AVBL
$$

WIZ011>013-019>022-031-037>040-048>050-311000-
NORTHEAST WISCONSIN

CITY           SKY/WX    TMP DP  RH WIND       PRES   REMARKS
ANTIGO         CLOUDY    17   8  70 W9        30.10F WCI   5
SHAWANO        CLOUDY    20  10  64 SW5       30.18F WCI  14
OCONTO         CLOUDY    20  11  67 MISG      30.18F
STURGEON BAY   CLOUDY    19  10  68 SW8       30.19F WCI   9
GREEN BAY      CLOUDY    20  13  74 S8        30.19F WCI  10
MANITOWOC      NOT AVBL
APPLETON       CLOUDY    19  12  73 S7        30.19F WCI  10
CLINTONVILLE   CLOUDY    19  10  68 S6        30.18F WCI  11
OSHKOSH        MOCLDY    18  11  74 S8        30.19F WCI   8
$$

WIZ032>034-041-042-053>061-311000-
SOUTHWEST WISCONSIN

CITY           SKY/WX    TMP DP  RH WIND       PRES   REMARKS
LA CROSSE      CLEAR     22  13  68 SE6       30.17F WCI  14
SPARTA         CLOUDY    26  14  59 SW3       30.17F
VIROQUA        CLEAR     22  14  74 SW8       30.14F WCI  12
BOSCOBEL       CLEAR     21  14  74 SW3       30.20F
PRAIRIE DU CHI CLEAR     24  13  63 CALM      30.20F
PLATTEVILLE    CLEAR     20  16  84 S10       30.21F WCI   9
$$

WIZ056-057-062-063-064-067-068-311000-
SOUTH CENTRAL WISCONSIN

CITY           SKY/WX    TMP DP  RH WIND       PRES   REMARKS
REEDSBURG      MOCLDY    22  15  74 CALM      30.18F
BARABOO/DELLS  PTCLDY    22  14  70 SW5       30.17F WCI  16
LONE ROCK      NOT AVBL
MINERAL POINT  CLEAR     23  18  80 S8        30.19F WCI  14
MADISON        CLEAR     24  15  68 S6        30.20F WCI  17
MIDDLETON      CLEAR     24  15  68 SW3       30.21F
WATERTOWN      CLEAR     16  13  89 CALM      30.22F
MONROE         CLEAR     23  19  86 SW15      30.21F WCI  10
JANESVILLE     MOCLDY    25  18  74 SW6       30.24F WCI  18
$$

WIZ051-052-058>065-066-070>072-311000-
SOUTHEAST WISCONSIN

CITY           SKY/WX    TMP DP  RH WIND       PRES   REMARKS
MILWAUKEE      MOCLDY    21  13  71 SW8       30.25F WCI  11
WAUKESHA       PTCLDY    18  12  79 CALM      30.25F
MILWAUKEE/TIMM CLOUDY    21  12  68 SW7       30.25F WCI  13
RACINE         CLOUDY    21  14  74 S7        30.27F WCI  12
BURLINGTON     MOCLDY    18  14  85 S5        30.25F WCI  11
KENOSHA        CLOUDY    21  15  78 S5        30.26F WCI  15
FOND DU LAC    PTCLDY    20  12  71 S8        30.20F WCI  10
SHEBOYGAN      CLOUDY    20  14  77 SW6       30.22F WCI  12
WEST BEND      CLOUDY    23  14  68 SW7       30.22F WCI  15
JUNEAU         PTCLDY    17  13  84 SE7       30.22F WCI   7
$$

LSZ147-162-311000-
LAKE SUPERIOR

STATION/POSITION TIME  TEMP    WIND        PRES    WAVE
                       AIR SEA DIR/SP/G            HT/PER
                 (UTC) (F)     (DEG/KT/KT) (MB)    (FT/S)
DEVILS ISLAND    0800   23     240/ 14/ 18 1020.9F
PORT WING        0800   21     230/  2/  4 1020.3S
SAXON HARBOR     0800   22     200/  6/  8 1020.0S
$$

LMZ867-665-643>646-311000-
LAKE MICHIGAN

STATION/POSITION TIME  TEMP    WIND        PRES    WAVE
                       AIR SEA DIR/SP/G            HT/PER
                 (UTC) (F)     (DEG/KT/KT) (MB)    (FT/S)
NORTHPORT PIER   0818   20     180/  2/  7 1022.4F
SISTER BAY       0743   21     230/  8/ 10   N/A
KEWAUNEE LAKESHO 0800   21     230/  3/  8 1023.1F
SHEBOYGAN LAKESH 0800   22     210/  6/  8 1025.7F
PORT WASHINGTON  0800   22     230/  5/  9 1025.1
MILWAUKEE LAKESH 0800   22     210/  8/ 10   N/A
KENOSHA   LAKESH 0800   21     200/  4/  8 1025.7F
$$

TC  - TEMPERATURE IN CELSIUS
VSB - VISIBILITY IN STATUTE MILES
WCI - WIND CHILL INDEX
HX  - HEAT INDEX



USA.gov is the U.S. government's official web portal to all federal, state and local government web resources and services.